| time (UTC) | temp C | wind direction | speed KPH | gust KPH | rain 1hr cm | rain 24hr cm | rain mn cm | humidity % | barometer mb |
| 20260506011405 | 7 | 53 | 0.0 | 4.8 | 0.00 | 0.00 | 0.00 | 3 | 1012.2 |
| 20260506010904 | 7 | 72 | 0.0 | 3.2 | 0.00 | 0.00 | 0.00 | 3 | 1012.2 |
| 20260506010405 | 7 | 72 | 0.0 | 8.0 | 0.00 | 0.00 | 0.00 | 3 | 1012.3 |
| 20260506003904 | 7 | 74 | 1.6 | 4.8 | 0.00 | 0.00 | 0.00 | 3 | 1012.3 |
| 20260506003403 | 7 | 76 | 0.0 | 8.0 | 0.00 | 0.00 | 0.00 | 3 | 1012.3 |
| 20260506001903 | 7 | 23 | 1.6 | 11.3 | 0.00 | 0.00 | 0.00 | 3 | 1012.4 |
| 20260505234404 | 7 | 63 | 3.2 | 14.5 | 0.00 | 0.00 | 0.00 | 3 | 1012.3 |
| 20260505233903 | 7 | 44 | 4.8 | 19.3 | 0.00 | 0.00 | 0.00 | 3 | 1012.3 |
| 20260505231903 | 7 | 47 | 1.6 | 11.3 | 0.00 | 0.00 | 0.00 | 3 | 1012.3 |
| 20260505230904 | 7 | 55 | 1.6 | 4.8 | 0.00 | 0.00 | 0.00 | 3 | 1012.3 |
| 20260505230404 | 7 | 49 | 1.6 | 16.1 | 0.00 | 0.00 | 0.00 | 3 | 1012.3 |
| 20260505224904 | 7 | 95 | 0.0 | 11.3 | 0.00 | 0.00 | 0.00 | 3 | 1012.3 |
| 20260505221403 | 7 | 33 | 3.2 | 16.1 | 0.00 | 0.00 | 0.00 | 3 | 1012.4 |
| 20260505220904 | 7 | 69 | 3.2 | 12.9 | 0.00 | 0.00 | 0.00 | 3 | 1012.3 |
| 20260505220403 | 7 | 88 | 1.6 | 11.3 | 0.00 | 0.00 | 0.00 | 3 | 1012.3 |
| 20260505214904 | 8 | 64 | 4.8 | 14.5 | 0.00 | 0.00 | 0.00 | 3 | 1012.3 |
| 20260505214403 | 8 | 76 | 4.8 | 16.1 | 0.00 | 0.00 | 0.00 | 3 | 1012.3 |
| 20260505211404 | 8 | 49 | 3.2 | 16.1 | 0.00 | 0.00 | 0.00 | 3 | 1012.2 |
| 20260505210404 | 8 | 42 | 1.6 | 16.1 | 0.00 | 0.00 | 0.00 | 3 | 1012.1 |
| 20260505204903 | 8 | 43 | 1.6 | 11.3 | 0.00 | 0.00 | 0.00 | 3 | 1011.9 |
| 20260505204403 | 8 | 57 | 3.2 | 11.3 | 0.00 | 0.00 | 0.00 | 3 | 1011.9 |
| 20260505203903 | 8 | 45 | 3.2 | 11.3 | 0.00 | 0.00 | 0.00 | 3 | 1011.8 |
| 20260505203404 | 8 | 53 | 3.2 | 19.3 | 0.00 | 0.00 | 0.00 | 3 | 1011.8 |
| 20260505201904 | 10 | 69 | 1.6 | 9.7 | 0.00 | 0.00 | 0.00 | 3 | 1011.7 |
| 20260505201403 | 10 | 57 | 3.2 | 16.1 | 0.00 | 0.00 | 0.00 | 3 | 1011.7 |
| 20260505200404 | 10 | 347 | 3.2 | 16.1 | 0.00 | 0.00 | 0.00 | 3 | 1011.5 |
| 20260505194903 | 10 | 306 | 0.0 | 4.8 | 0.00 | 0.00 | 0.00 | 3 | 1011.5 |
| 20260505193904 | 10 | 295 | 1.6 | 8.0 | 0.00 | 0.00 | 0.00 | 3 | 1011.3 |
| 20260505191404 | 11 | 333 | 3.2 | 16.1 | 0.00 | 0.00 | 0.00 | 3 | 1011.2 |
| 20260505190904 | 11 | 312 | 1.6 | 11.3 | 0.00 | 0.00 | 0.00 | 3 | 1011.2 |
| 20260505190403 | 11 | 303 | 9.7 | 19.3 | 0.00 | 0.00 | 0.00 | 3 | 1011.2 |
| 20260505184404 | 11 | 339 | 4.8 | 14.5 | 0.00 | 0.00 | 0.00 | 5 | 1011.2 |
| 20260505183903 | 11 | 315 | 3.2 | 9.7 | 0.00 | 0.00 | 0.00 | 5 | 1011.2 |
| 20260505183405 | 11 | 316 | 1.6 | 19.3 | 0.00 | 0.00 | 0.00 | 8 | 1011.2 |
| 20260505181404 | 11 | 343 | 4.8 | 16.1 | 0.00 | 0.00 | 0.00 | 9 | 1011.3 |
| 20260505180404 | 11 | 307 | 4.8 | 19.3 | 0.00 | 0.00 | 0.00 | 10 | 1011.2 |
| 20260505174403 | 11 | 280 | 1.6 | 16.1 | 0.00 | 0.00 | 0.00 | 13 | 1011.2 |
| 20260505171405 | 12 | 305 | 9.7 | 20.9 | 0.00 | 0.00 | 0.00 | 17 | 1011.3 |
| 20260505170403 | 12 | 315 | 1.6 | 19.3 | 0.00 | 0.00 | 0.00 | 13 | 1011.3 |
| 20260505163903 | 12 | 280 | 9.7 | 20.9 | 0.00 | 0.00 | 0.00 | 12 | 1011.2 |
| 20260505163404 | 12 | 327 | 4.8 | 22.5 | 0.00 | 0.00 | 0.00 | 10 | 1011.2 |
| 20260505150904 | 11 | 279 | 4.8 | 19.3 | 0.00 | 0.00 | 0.00 | 27 | 1011.3 |
| 20260505150404 | 11 | 303 | 8.0 | 20.9 | 0.00 | 0.00 | 0.00 | 28 | 1011.4 |
| 20260505124904 | 11 | 292 | 8.0 | 22.5 | 0.00 | 0.00 | 0.00 | 3 | 1011.6 |
| 20260505123904 | 11 | 302 | 8.0 | 19.3 | 0.00 | 0.00 | 0.00 | 3 | 1011.7 |
| 20260505121905 | 11 | 309 | 8.0 | 24.1 | 0.00 | 0.00 | 0.00 | 3 | 1011.6 |
| 20260505114905 | 11 | 290 | 9.7 | 19.3 | 0.00 | 0.00 | 0.00 | 3 | 1011.7 |
| 20260505114404 | 11 | 313 | 11.3 | 22.5 | 0.00 | 0.00 | 0.00 | 3 | 1011.7 |
| 20260505113903 | 11 | 294 | 3.2 | 19.3 | 0.00 | 0.00 | 0.00 | 3 | 1011.7 |
| 20260505113404 | 11 | 288 | 6.4 | 19.3 | 0.00 | 0.00 | 0.00 | 3 | 1011.8 |
| 20260505111904 | 10 | 285 | 4.8 | 19.3 | 0.00 | 0.00 | 0.00 | 3 | 1012.1 |
| 20260505110903 | 10 | 310 | 12.9 | 20.9 | 0.00 | 0.00 | 0.00 | 3 | 1012.0 |
| 20260505110405 | 10 | 297 | 9.7 | 32.2 | 0.00 | 0.00 | 0.00 | 3 | 1012.0 |
| 20260505101903 | 10 | 294 | 9.7 | 20.9 | 0.00 | 0.00 | 0.00 | 3 | 1011.9 |
| 20260505100903 | 10 | 291 | 16.1 | 27.4 | 0.00 | 0.00 | 0.00 | 3 | 1011.8 |
| 20260505094903 | 10 | 319 | 3.2 | 16.1 | 0.00 | 0.00 | 0.00 | 3 | 1011.7 |
| 20260505093903 | 10 | 311 | 8.0 | 20.9 | 0.00 | 0.00 | 0.00 | 3 | 1011.8 |
| 20260505091904 | 10 | 299 | 3.2 | 16.1 | 0.00 | 0.00 | 0.00 | 3 | 1011.8 |
| 20260505084404 | 10 | 296 | 4.8 | 16.1 | 0.00 | 0.00 | 0.00 | 3 | 1011.9 |
| 20260505083904 | 10 | 303 | 0.0 | 9.7 | 0.00 | 0.00 | 0.00 | 3 | 1011.9 |
| 20260505083404 | 10 | 313 | 3.2 | 19.3 | 0.00 | 0.00 | 0.00 | 3 | 1012.0 |
| 20260505081904 | 10 | 333 | 3.2 | 8.0 | 0.00 | 0.00 | 0.00 | 3 | 1011.9 |
| 20260505080404 | 10 | 330 | 3.2 | 11.3 | 0.00 | 0.00 | 0.00 | 3 | 1011.8 |
| 20260505073404 | 10 | 293 | 1.6 | 4.8 | 0.00 | 0.00 | 0.00 | 3 | 1011.8 |
| 20260505063903 | 8 | 306 | 0.0 | 0.0 | 0.00 | 0.00 | 0.00 | 3 | 1012.0 |
| 20260505063404 | 8 | 321 | 0.0 | 0.0 | 0.00 | 0.00 | 0.00 | 3 | 1012.0 |
| 20260505061903 | 8 | 309 | 0.0 | 0.0 | 0.00 | 0.00 | 0.00 | 3 | 1012.1 |
| 20260505060903 | 8 | 266 | 0.0 | 0.0 | 0.00 | 0.00 | 0.00 | 3 | 1011.9 |
| 20260505054404 | 7 | 266 | 0.0 | 0.0 | 0.00 | 0.00 | 0.00 | 3 | 1011.8 |
| 20260505051404 | 7 | 266 | 0.0 | 0.0 | 0.00 | 0.00 | 0.00 | 3 | 1011.7 |
| 20260505050904 | 7 | 266 | 0.0 | 0.0 | 0.00 | 0.00 | 0.00 | 3 | 1011.7 |
| 20260505050404 | 7 | 267 | 0.0 | 0.0 | 0.00 | 0.00 | 0.00 | 3 | 1011.7 |
| 20260505040404 | 7 | 271 | 0.0 | 1.6 | 0.00 | 0.00 | 0.00 | 3 | 1011.5 |
| 20260505034403 | 7 | 264 | 0.0 | 1.6 | 0.00 | 0.00 | 0.00 | 3 | 1011.5 |
| 20260505033404 | 7 | 286 | 0.0 | 0.0 | 0.00 | 0.00 | 0.00 | 3 | 1011.6 |
| 20260505031905 | 7 | 275 | 0.0 | 1.6 | 0.00 | 0.00 | 0.00 | 3 | 1011.7 |
| 20260505030905 | 7 | 274 | 0.0 | 1.6 | 0.00 | 0.00 | 0.00 | 3 | 1011.7 |
| 20260505024404 | 7 | 275 | 0.0 | 1.6 | 0.00 | 0.00 | 0.00 | 3 | 1011.7 |
| 20260505023904 | 7 | 268 | 0.0 | 1.6 | 0.00 | 0.00 | 0.00 | 3 | 1011.7 |
| 20260505023403 | 7 | 260 | 0.0 | 1.6 | 0.00 | 0.00 | 0.00 | 3 | 1011.7 |
| 20260505020404 | 7 | 240 | 0.0 | 3.2 | 0.00 | 0.00 | 0.00 | 3 | 1011.9 |
| 20260505013903 | 7 | 260 | 0.0 | 4.8 | 0.00 | 0.00 | 0.00 | 3 | 1012.2 |
| 20260505013403 | 7 | 269 | 0.0 | 4.8 | 0.00 | 0.00 | 0.00 | 3 | 1012.2 |